| time (UTC) | temp C | wind direction | speed KPH | gust KPH | rain 1hr cm | rain 24hr cm | rain mn cm | humidity % | barometer mb |
| 20260505124528 | 12 | 309 | 0.0 | 1.6 | 0.00 | 0.00 | 0.00 | 81 | 1016.1 |
| 20260505123030 | 10 | 13 | 0.0 | 0.0 | 0.00 | 0.00 | 0.00 | 85 | 1016.0 |
| 20260505121507 | 8 | 13 | 0.0 | 0.0 | 0.00 | 0.00 | 0.00 | 87 | 1016.0 |
| 20260505120019 | 7 | 13 | 0.0 | 0.0 | 0.00 | 0.00 | 0.00 | 89 | 1015.9 |
| 20260505114518 | 6 | 13 | 0.0 | 0.0 | 0.00 | 0.00 | 0.00 | 88 | 1015.9 |
| 20260505113024 | 6 | 13 | 0.0 | 0.0 | 0.00 | 0.00 | 0.00 | 88 | 1015.8 |
| 20260505111523 | 5 | 13 | 0.0 | 0.0 | 0.00 | 0.00 | 0.00 | 88 | 1015.8 |
| 20260505101547 | 6 | 13 | 0.0 | 0.0 | 0.00 | 0.00 | 0.00 | 88 | 1015.6 |
| 20260505100052 | 6 | 13 | 0.0 | 0.0 | 0.00 | 0.00 | 0.00 | 87 | 1015.6 |
| 20260505094513 | 6 | 13 | 0.0 | 1.6 | 0.00 | 0.00 | 0.00 | 86 | 1015.6 |
| 20260505093023 | 6 | 13 | 0.0 | 0.0 | 0.00 | 0.00 | 0.00 | 86 | 1015.5 |
| 20260505091523 | 6 | 13 | 0.0 | 0.0 | 0.00 | 0.00 | 0.00 | 86 | 1015.4 |
| 20260505090026 | 7 | 13 | 0.0 | 1.6 | 0.00 | 0.00 | 0.00 | 86 | 1015.3 |
| 20260505084508 | 6 | 20 | 0.0 | 0.0 | 0.00 | 0.00 | 0.00 | 86 | 1015.1 |
| 20260505083014 | 6 | 240 | 0.0 | 0.0 | 0.00 | 0.00 | 0.00 | 85 | 1015.0 |
| 20260505081520 | 7 | 171 | 0.0 | 0.0 | 0.00 | 0.00 | 0.00 | 84 | 1014.8 |
| 20260505080023 | 7 | 171 | 0.0 | 0.0 | 0.00 | 0.00 | 0.00 | 84 | 1014.8 |
| 20260505074525 | 7 | 171 | 0.0 | 1.6 | 0.00 | 0.00 | 0.00 | 84 | 1014.5 |
| 20260505073027 | 7 | 171 | 0.0 | 1.6 | 0.00 | 0.00 | 0.00 | 86 | 1014.5 |
| 20260505071514 | 7 | 148 | 1.6 | 3.2 | 0.00 | 0.00 | 0.00 | 82 | 1014.4 |
| 20260505070020 | 8 | 44 | 0.0 | 1.6 | 0.00 | 0.00 | 0.00 | 81 | 1014.3 |
| 20260505064524 | 8 | 44 | 0.0 | 0.0 | 0.00 | 0.00 | 0.00 | 81 | 1014.4 |
| 20260505063026 | 9 | 44 | 0.0 | 0.0 | 0.00 | 0.00 | 0.00 | 78 | 1014.5 |
| 20260505061519 | 10 | 44 | 0.0 | 0.0 | 0.00 | 0.00 | 0.00 | 75 | 1014.4 |
| 20260505060014 | 11 | 44 | 0.0 | 0.0 | 0.00 | 0.00 | 0.00 | 72 | 1014.6 |
| 20260505054523 | 11 | 44 | 0.0 | 1.6 | 0.00 | 0.00 | 0.00 | 70 | 1014.6 |
| 20260505053036 | 11 | 44 | 0.0 | 1.6 | 0.00 | 0.00 | 0.00 | 70 | 1014.5 |
| 20260505051538 | 12 | 44 | 0.0 | 0.0 | 0.00 | 0.00 | 0.00 | 70 | 1014.4 |
| 20260505041526 | 10 | 44 | 0.0 | 0.0 | 0.00 | 0.00 | 0.00 | 75 | 1014.4 |
| 20260505040030 | 11 | 44 | 0.0 | 0.0 | 0.00 | 0.00 | 0.00 | 74 | 1014.6 |
| 20260505034514 | 11 | 44 | 0.0 | 0.0 | 0.00 | 0.00 | 0.00 | 71 | 1014.7 |
| 20260505033017 | 12 | 44 | 0.0 | 0.0 | 0.00 | 0.00 | 0.00 | 70 | 1014.7 |
| 20260505031531 | 12 | 281 | 0.0 | 0.0 | 0.00 | 0.00 | 0.00 | 67 | 1014.9 |
| 20260505030026 | 13 | 280 | 0.0 | 0.0 | 0.00 | 0.00 | 0.00 | 66 | 1014.9 |
| 20260505024527 | 13 | 281 | 0.0 | 0.0 | 0.00 | 0.00 | 0.00 | 64 | 1015.0 |
| 20260505023020 | 14 | 281 | 0.0 | 0.0 | 0.00 | 0.00 | 0.00 | 62 | 1014.9 |
| 20260505021519 | 15 | 281 | 0.0 | 0.0 | 0.00 | 0.00 | 0.00 | 58 | 1014.8 |
| 20260505020030 | 15 | 281 | 0.0 | 0.0 | 0.00 | 0.00 | 0.00 | 53 | 1014.7 |
| 20260505014523 | 16 | 256 | 0.0 | 0.0 | 0.00 | 0.00 | 0.00 | 53 | 1014.6 |
| 20260505013030 | 16 | 256 | 0.0 | 0.0 | 0.00 | 0.00 | 0.00 | 53 | 1014.4 |
| 20260505011518 | 17 | 256 | 0.0 | 0.0 | 0.00 | 0.00 | 0.00 | 50 | 1014.3 |
| 20260505010029 | 18 | 256 | 0.0 | 0.0 | 0.00 | 0.00 | 0.00 | 47 | 1014.1 |
| 20260505004522 | 20 | 236 | 1.6 | 3.2 | 0.00 | 0.00 | 0.00 | 41 | 1013.9 |
| 20260505003026 | 20 | 251 | 1.6 | 6.4 | 0.00 | 0.00 | 0.00 | 40 | 1013.8 |
| 20260505001530 | 20 | 245 | 1.6 | 3.2 | 0.00 | 0.00 | 0.00 | 39 | 1013.7 |
| 20260505000023 | 21 | 246 | 1.6 | 4.8 | 0.00 | 0.00 | 0.00 | 38 | 1013.6 |
| 20260504234521 | 21 | 251 | 1.6 | 4.8 | 0.00 | 0.00 | 0.00 | 39 | 1013.5 |
| 20260504233025 | 22 | 255 | 1.6 | 4.8 | 0.00 | 0.00 | 0.00 | 37 | 1013.3 |
| 20260504231527 | 22 | 256 | 3.2 | 9.7 | 0.00 | 0.00 | 0.00 | 36 | 1013.2 |
| 20260504230039 | 22 | 250 | 6.4 | 16.1 | 0.00 | 0.00 | 0.00 | 34 | 1013.2 |
| 20260504224517 | 22 | 229 | 4.8 | 12.9 | 0.00 | 0.00 | 0.00 | 34 | 1013.2 |
| 20260504223020 | 22 | 264 | 3.2 | 8.0 | 0.00 | 0.00 | 0.00 | 35 | 1013.2 |
| 20260504221538 | 23 | 253 | 4.8 | 8.0 | 0.00 | 0.00 | 0.00 | 33 | 1013.1 |
| 20260504220028 | 23 | 275 | 1.6 | 4.8 | 0.00 | 0.00 | 0.00 | 34 | 1013.0 |
| 20260504214527 | 23 | 223 | 6.4 | 17.7 | 0.00 | 0.00 | 0.00 | 35 | 1013.1 |
| 20260504213018 | 23 | 233 | 4.8 | 16.1 | 0.00 | 0.00 | 0.00 | 35 | 1013.1 |
| 20260504211530 | 23 | 219 | 3.2 | 8.0 | 0.00 | 0.00 | 0.00 | 36 | 1013.1 |
| 20260504210026 | 23 | 243 | 6.4 | 16.1 | 0.00 | 0.00 | 0.00 | 35 | 1013.1 |
| 20260504204511 | 23 | 173 | 1.6 | 12.9 | 0.00 | 0.00 | 0.00 | 35 | 1013.2 |
| 20260504203013 | 23 | 223 | 6.4 | 12.9 | 0.00 | 0.00 | 0.00 | 35 | 1013.4 |
| 20260504201524 | 23 | 266 | 6.4 | 11.3 | 0.00 | 0.00 | 0.00 | 36 | 1013.5 |
| 20260504200024 | 23 | 233 | 6.4 | 9.7 | 0.00 | 0.00 | 0.00 | 36 | 1013.7 |
| 20260504194537 | 23 | 222 | 4.8 | 8.0 | 0.00 | 0.00 | 0.00 | 36 | 1013.9 |
| 20260504193014 | 23 | 255 | 1.6 | 9.7 | 0.00 | 0.00 | 0.00 | 36 | 1014.1 |
| 20260504191530 | 23 | 279 | 3.2 | 4.8 | 0.00 | 0.00 | 0.00 | 36 | 1014.4 |
| 20260504190023 | 23 | 259 | 3.2 | 11.3 | 0.00 | 0.00 | 0.00 | 37 | 1014.5 |
| 20260504184527 | 23 | 278 | 1.6 | 12.9 | 0.00 | 0.00 | 0.00 | 35 | 1014.7 |
| 20260504183028 | 23 | 217 | 1.6 | 9.7 | 0.00 | 0.00 | 0.00 | 36 | 1014.7 |
| 20260504181517 | 23 | 259 | 3.2 | 12.9 | 0.00 | 0.00 | 0.00 | 36 | 1015.0 |
| 20260504180019 | 24 | 280 | 4.8 | 9.7 | 0.00 | 0.00 | 0.00 | 34 | 1015.1 |
| 20260504174520 | 23 | 262 | 3.2 | 11.3 | 0.00 | 0.00 | 0.00 | 37 | 1015.2 |
| 20260504173030 | 23 | 274 | 1.6 | 11.3 | 0.00 | 0.00 | 0.00 | 36 | 1015.3 |
| 20260504171533 | 23 | 251 | 1.6 | 8.0 | 0.00 | 0.00 | 0.00 | 36 | 1015.4 |